TimeCEST,TemperatureF,Dew PointF,Humidity,Sea Level PressureIn,VisibilityMPH,Wind Direction,Wind SpeedMPH,Gust SpeedMPH,PrecipitationIn,Events,Conditions,WindDirDegrees,DateUTC
12:00 AM,53.6,51.8,94,30.09,6.2,North,8.1,-,N/A,,Mostly Cloudy,10,2013-05-08 22:00:00
12:30 AM,53.6,51.8,94,30.09,6.2,North,4.6,-,N/A,,Mostly Cloudy,10,2013-05-08 22:30:00
1:00 AM,53.6,51.8,94,30.09,6.2,North,3.5,-,N/A,,Mostly Cloudy,360,2013-05-08 23:00:00
1:30 AM,53.6,51.8,94,30.06,6.2,Variable,1.2,-,N/A,,Mostly Cloudy,0,2013-05-08 23:30:00
2:00 AM,53.6,51.8,94,30.06,6.2,Variable,1.2,-,N/A,,Mostly Cloudy,0,2013-05-09 00:00:00
2:30 AM,53.6,51.8,94,30.06,6.2,NNE,3.5,-,N/A,,Mostly Cloudy,20,2013-05-09 00:30:00
3:00 AM,53.6,51.8,94,30.06,6.2,NNE,4.6,-,N/A,,Mostly Cloudy,30,2013-05-09 01:00:00
3:30 AM,53.6,51.8,94,30.06,6.2,North,2.3,-,N/A,,Mostly Cloudy,350,2013-05-09 01:30:00
4:00 AM,53.6,51.8,94,30.04,6.2,North,2.3,-,N/A,,Mostly Cloudy,360,2013-05-09 02:00:00
4:30 AM,53.6,51.8,94,30.04,6.2,Variable,1.2,-,N/A,,Mostly Cloudy,0,2013-05-09 02:30:00
5:00 AM,53.6,51.8,94,30.04,6.2,Variable,1.2,-,N/A,,Scattered Clouds,0,2013-05-09 03:00:00
5:30 AM,53.6,51.8,94,30.04,6.2,Calm,Calm,-,N/A,,Scattered Clouds,0,2013-05-09 03:30:00
6:00 AM,53.6,51.8,94,30.01,6.2,Variable,1.2,-,N/A,,Mostly Cloudy,0,2013-05-09 04:00:00
6:30 AM,53.6,53.6,100,30.01,6.2,Variable,2.3,-,N/A,,Mostly Cloudy,0,2013-05-09 04:30:00
7:00 AM,53.6,51.8,94,30.01,6.2,North,2.3,-,N/A,,Mostly Cloudy,350,2013-05-09 05:00:00
7:30 AM,53.6,53.6,100,30.01,5.6,Variable,2.3,-,N/A,,Mostly Cloudy,0,2013-05-09 05:30:00
8:00 AM,53.6,53.6,100,30.01,5.6,North,2.3,-,N/A,,Mostly Cloudy,10,2013-05-09 06:00:00
8:30 AM,53.6,51.8,94,30.01,5.6,NNE,5.8,-,N/A,,Mostly Cloudy,20,2013-05-09 06:30:00
9:00 AM,53.6,53.6,100,30.01,5.6,NE,5.8,-,N/A,,Mostly Cloudy,40,2013-05-09 07:00:00
9:30 AM,55.4,51.8,88,30.01,5.6,North,6.9,-,N/A,,Mostly Cloudy,10,2013-05-09 07:30:00
10:00 AM,55.4,51.8,88,30.01,5.6,North,4.6,-,N/A,,Mostly Cloudy,360,2013-05-09 08:00:00
10:30 AM,53.6,51.8,94,30.01,5.6,NW,3.5,-,N/A,Rain,Light Rain,320,2013-05-09 08:30:00
11:00 AM,53.6,51.8,94,30.01,4.3,Calm,Calm,-,N/A,Rain,Light Rain,0,2013-05-09 09:00:00
11:30 AM,53.6,51.8,94,30.04,3.7,WNW,3.5,-,N/A,Rain,Light Rain,290,2013-05-09 09:30:00
12:00 PM,53.6,51.8,94,30.04,3.7,Calm,Calm,-,N/A,Rain,Light Rain,0,2013-05-09 10:00:00
12:30 PM,53.6,53.6,100,30.04,4.3,Calm,Calm,-,N/A,Rain,Light Rain,0,2013-05-09 10:30:00
1:00 PM,55.4,53.6,94,30.01,5.6,Calm,Calm,-,N/A,Rain,Light Rain,0,2013-05-09 11:00:00
1:30 PM,55.4,51.8,88,30.01,5.6,Variable,2.3,-,N/A,Rain,Light Rain,0,2013-05-09 11:30:00
2:00 PM,55.4,53.6,94,30.01,4.3,Variable,1.2,-,N/A,Rain,Light Rain,0,2013-05-09 12:00:00
2:30 PM,55.4,53.6,94,30.04,1.9,North,8.1,-,N/A,Rain,Rain,360,2013-05-09 12:30:00
3:00 PM,55.4,53.6,94,30.04,2.8,NNE,4.6,-,N/A,Rain,Light Rain,20,2013-05-09 13:00:00
3:30 PM,55.4,53.6,94,30.04,3.1,NNE,4.6,-,N/A,Rain,Light Rain,20,2013-05-09 13:30:00
4:00 PM,55.4,53.6,94,30.04,3.1,North,4.6,-,N/A,Rain,Light Rain,360,2013-05-09 14:00:00
4:30 PM,53.6,51.8,94,30.04,2.2,North,8.1,-,N/A,Rain,Rain,360,2013-05-09 14:30:00
5:00 PM,53.6,50.0,88,30.06,-9999.0,North,8.1,-,N/A,Rain,Light Rain,360,2013-05-09 15:00:00
5:30 PM,51.8,51.8,100,30.06,-9999.0,North,4.6,-,N/A,Rain,Light Rain,360,2013-05-09 15:30:00
6:00 PM,51.8,50.0,94,30.06,3.1,NNE,4.6,-,N/A,Rain,Light Rain,20,2013-05-09 16:00:00
6:30 PM,51.8,50.0,94,30.09,3.7,North,5.8,-,N/A,Rain,Light Rain,360,2013-05-09 16:30:00
7:00 PM,51.8,50.0,94,30.09,5.0,NNE,5.8,-,N/A,,Mostly Cloudy,30,2013-05-09 17:00:00
8:00 PM,51.8,48.2,88,30.12,3.1,NNE,5.8,-,N/A,,Light Drizzle,20,2013-05-09 18:00:00
8:30 PM,50.0,48.2,94,30.12,6.2,NNE,5.8,-,N/A,,Mostly Cloudy,20,2013-05-09 18:30:00
9:00 PM,50.0,48.2,94,30.12,6.2,NNE,6.9,-,N/A,,Mostly Cloudy,30,2013-05-09 19:00:00
9:30 PM,50.0,48.2,94,30.12,6.2,NNE,4.6,-,N/A,,Mostly Cloudy,20,2013-05-09 19:30:00
10:00 PM,50.0,48.2,94,30.15,6.2,North,3.5,-,N/A,,Mostly Cloudy,360,2013-05-09 20:00:00
10:30 PM,50.0,48.2,94,30.15,3.7,NNE,6.9,-,N/A,,Mostly Cloudy,20,2013-05-09 20:30:00
11:00 PM,48.2,46.4,93,30.18,5.0,North,8.1,-,N/A,,Mostly Cloudy,10,2013-05-09 21:00:00
11:30 PM,48.2,46.4,93,30.18,5.0,NNE,3.5,-,N/A,,Mostly Cloudy,20,2013-05-09 21:30:00